[Date Prev][Date Next][Thread Prev][Thread Next] - [Date Index][Thread Index][Author Index]
2 Line ISS Keps 10-19
- Subject: [sarex] 2 Line ISS Keps 10-19
- From: "Dave Larsen PhD" <doc@xxxxxxxxxxx>
- Date: Wed, 19 Oct 2005 02:10:08 -0700
ISS
1 25544U 98067A 05292.15399394 .00015177 00000-0 10733-3 0 5771
2 25544 051.6451 345.7704 0001879 103.2458 286.8429 15.74240878395194
----
Via the sarex mailing list at AMSAT.ORG courtesy of AMSAT-NA.
To unsubscribe, send "unsubscribe sarex" to Majordomo@amsat.org
AMSAT Home